This demonstration page uses our WeatherBlox Daily Observations layout. Learn more.

Left ArrowRight Arrow

38.88101, -77.10428

Hourly Observations for December 29, 2015

Temp ( °F °C ) Dew Point ( °F °C ) Humidity (%) Winds ( mph kmh ) Pressure ( in mb ) Visibility ( mi km ) Precip ( " mm )
12:03 am 00:03 Cloudy with Rain 45 7 43 6 93 93 N 8 13 30.18 1022 3 4 N/A
12:13 am 00:13 Cloudy with Heavy Rain 44 6.7 43 6.1 96 96 N 8 13 30.18 1022 2 2 0.06 1.52
12:17 am 00:17 Cloudy with Rain 44 6.7 43 6.1 96 96 NNE 9 15 30.18 1022 3 4 0.08 2.03
12:29 am 00:29 Cloudy with Light Rain 44 6.7 43 6.1 96 96 NNE 7 11 30.18 1022 2 3 0.10 2.54
12:34 am 00:34 Cloudy with Light Rain 45 7 43 6 93 93 NNE 6 9 30.18 1022 3 4 N/A
12:48 am 00:48 Cloudy with Light Rain 45 7 43 6 93 93 N 7 11 30.18 1022 3 5 N/A
12:52 am 00:52 Cloudy with Rain 44 6.7 43 6.1 96 96 NNW 8 13 30.17 1022 3 5 0.13 3.30
1:18 am 01:18 Cloudy with Heavy Rain 45 7 43 6 93 93 NNW 10 17 30.15 1021 2 3 N/A
1:25 am 01:25 Cloudy with Rain 44 6.7 43 6.1 96 96 N 12 19 30.15 1021 3 5 0.13 3.30
1:49 am 01:49 Cloudy with Light Rain 45 7 45 7 100 100 N 13 20 30.12 1020 3 5 0.15 3.81
1:52 am 01:52 Cloudy with Light Rain 45 7.2 44 6.7 97 97 N 13 20 30.12 1020 3 5 0.15 3.81
2:52 am 02:52 Cloudy with Rain 45 7.2 44 6.7 97 97 NNE 10 17 30.08 1019 4 6 0.06 1.52
3:52 am 03:52 Cloudy with Rain 46 7.8 45 7.2 96 96 NNW 10 17 30.07 1018 4 6 0.10 2.54
4:10 am 04:10 Cloudy with Light Rain 46 8 45 7 93 93 N 8 13 30.06 1018 7 11 N/A
4:25 am 04:25 Cloudy with Light Rain 47 8.3 45 7.2 93 93 NNE 10 17 30.03 1017 10 16 0.04 1.02
4:52 am 04:52 Cloudy with Light Rain 47 8.3 45 7.2 93 93 NE 10 17 30.00 1016 10 16 0.04 1.02
5:52 am 05:52 Cloudy with Light Rain 47 8.3 45 7.2 93 93 NNE 10 17 29.97 1015 10 16 0.01 0.25
6:52 am 06:52 Cloudy with Drizzle 47 8.3 46 7.8 97 97 NNW 7 11 29.98 1015 3 5 N/A
7:01 am 07:01 Cloudy with Drizzle 47 8.3 46 7.8 97 97 N 7 11 29.97 1015 2 3 N/A
7:07 am 07:07 Cloudy with Drizzle 47 8.3 46 7.8 97 97 N 7 11 29.97 1015 2 3 N/A
7:47 am 07:47 Cloudy with Drizzle 46 8 46 8 100 100 NW 7 11 30.00 1016 2 2 0.01 0.25
7:52 am 07:52 Cloudy with Drizzle 47 8.3 46 7.8 97 97 NW 9 15 29.98 1015 2 2 0.01 0.25
8:20 am 08:20 Cloudy with Drizzle 46 8 46 8 100 100 NW 7 11 29.97 1015 2 3 N/A
8:52 am 08:52 Cloudy with Mist and Fog 46 7.8 44 6.7 93 93 NW 9 15 29.99 1016 4 6 0.01 0.25
9:52 am 09:52 Cloudy with Drizzle 46 7.8 44 6.7 93 93 WNW 5 7 29.99 1016 4 6 N/A
10:14 am 10:14 Cloudy with Mist and Fog 46 8 45 7 93 93 SW 6 9 30.00 1016 6 10 N/A
10:32 am 10:32 Cloudy 46 8 45 7 93 93 W 6 9 30.00 1016 10 16 N/A
10:52 am 10:52 Cloudy 47 8.3 45 7.2 93 93 WSW 3 6 29.98 1015 10 16 N/A
11:52 am 11:52 Cloudy 49 9.4 45 7.2 86 86 WSW 5 7 29.97 1015 10 16 N/A
12:52 pm 12:52 Cloudy 51 10.6 47 8.3 86 86 SW 7 11 29.95 1014 10 16 N/A
1:07 pm 13:07 Cloudy 51 10.6 47 8.3 86 86 SW 5 7 29.94 1014 10 16 N/A
1:52 pm 13:52 Cloudy 51 10.6 48 8.9 89 89 S 6 9 29.94 1014 10 16 N/A
2:52 pm 14:52 Cloudy 52 11.1 48 8.9 86 86 S 6 9 29.96 1015 10 16 N/A
3:52 pm 15:52 Mostly Cloudy 53 11.7 49 9.4 86 86 N N/A 29.98 1015 10 16 N/A
4:52 pm 16:52 Mostly Cloudy 53 11.7 49 9.4 86 86 N N/A 30.01 1016 10 16 N/A
5:52 pm 17:52 Cloudy 53 11.7 49 9.4 86 86 N N/A 30.05 1018 10 16 N/A
6:52 pm 18:52 Cloudy 52 11.1 49 9.4 89 89 NE 5 7 30.08 1019 10 16 N/A
7:52 pm 19:52 Mostly Cloudy 51 10.6 48 8.9 89 89 NE 8 13 30.10 1019 10 16 N/A
8:52 pm 20:52 Partly Cloudy 50 10 48 8.9 93 93 NE 6 9 30.13 1020 10 16 N/A
9:47 pm 21:47 Partly Cloudy 50 10 48 9 94 94 NNE 8 13 30.15 1021 10 16 N/A
9:52 pm 21:52 Partly Cloudy 50 10 48 8.9 93 93 NNE 9 15 30.15 1021 7 11 N/A
9:55 pm 21:55 Mostly Cloudy with Mist and Fog 50 10 48 8.9 93 93 N 7 11 30.15 1021 6 10 N/A
10:49 pm 22:49 Cloudy with Mist and Fog 50 10 48 9 94 94 NE 7 11 30.15 1021 3 5 N/A
10:52 pm 22:52 Cloudy with Mist and Fog 50 10 49 9.4 96 96 NE 6 9 30.16 1021 3 5 N/A
11:22 pm 23:22 Cloudy with Mist and Fog 50 10 48 9 94 94 NE 6 9 30.18 1022 3 4 N/A
11:34 pm 23:34 Cloudy with Mist and Fog 50 10 48 9 94 94 NNE 7 11 30.15 1021 2 2 N/A
11:50 pm 23:50 Mostly Cloudy with Fog 48 9 48 9 100 100 N 7 11 30.18 1022 0 0 N/A
11:52 pm 23:52 Mostly Cloudy with Fog 49 9.4 48 8.9 97 97 N 6 9 30.18 1022 0 0 N/A

Powered by AerisWeather